,,PA_Meas_PMT16A,,PR_Meas_QMR101_102,,RH_Meas_QMH101,,SR_Meas_QMS101,,TA_Meas_QMH101,,GenWind,,GenWind,
time,status,PA,status,PR,status,RH,status,SR,status,TA,status,DirAvg,status,SpdAvg,
2012-04-30, 00:00:04,VALID,918.412,VALID,0,VALID,94.3169,VALID,0,VALID,20.7349,VALID,27,VALID,1.03945,
2012-04-30, 00:01:04,VALID,918.412,VALID,0,VALID,94.2254,VALID,0,VALID,20.7349,VALID,27,VALID,1.2293,
2012-04-30, 00:02:04,VALID,918.392,VALID,0,VALID,94.1721,VALID,0,VALID,20.7349,VALID,27,VALID,0.349609,
2012-04-30, 00:03:04,VALID,918.389,VALID,0,VALID,94.0272,VALID,0,VALID,20.7349,VALID,307,VALID,0.767187,
2012-04-30, 00:04:04,VALID,918.387,VALID,0,VALID,93.8824,VALID,0,VALID,20.7349,VALID,330,VALID,1.55234,
2012-04-30, 00:05:04,VALID,918.364,VALID,0,VALID,93.9662,VALID,0,VALID,20.7138,VALID,340,VALID,0.819531,
2012-04-30, 00:06:04,VALID,918.381,VALID,0,VALID,93.8824,VALID,0,VALID,20.7349,VALID,4,VALID,0.605469,
2012-04-30, 00:07:04,VALID,918.341,VALID,0,VALID,93.9662,VALID,0,VALID,20.7544,VALID,4,VALID,0.320313,
2012-04-30, 00:08:04,VALID,918.357,VALID,0,VALID,93.9357,VALID,0,VALID,20.7349,VALID,4,VALID,0.312891,
2012-04-30, 00:09:04,VALID,918.348,VALID,0,VALID,94.012,VALID,0,VALID,20.7349,VALID,4,VALID,0,
2012-04-30, 00:10:04,VALID,918.327,VALID,0,VALID,94.012,VALID,0,VALID,20.7349,VALID,4,VALID,0.107422,
2012-04-30, 00:11:04,VALID,918.298,VALID,0,VALID,94.0196,VALID,0,VALID,20.7154,VALID,4,VALID,0.1875,
2012-04-30, 00:12:04,VALID,918.279,VALID,0,VALID,94.1111,VALID,0,VALID,20.7349,VALID,4,VALID,0.328906,
2012-04-30, 00:13:04,VALID,918.258,VALID,0,VALID,94.0272,VALID,0,VALID,20.6943,VALID,4,VALID,0.564844,
2012-04-30, 00:14:04,VALID,918.252,VALID,0,VALID,94.0348,VALID,0,VALID,20.6748,VALID,336,VALID,0.658594,
2012-04-30, 00:15:04,VALID,918.19,VALID,0,VALID,94.0196,VALID,0,VALID,20.6764,VALID,336,VALID,0.570313,
2012-04-30, 00:16:04,VALID,918.145,VALID,0,VALID,94.073,VALID,0,VALID,20.6358,VALID,336,VALID,0.408594,
2012-04-30, 00:17:04,VALID,918.165,VALID,0,VALID,94.073,VALID,0,VALID,20.6374,VALID,336,VALID,0.779297,
2012-04-30, 00:18:04,VALID,918.104,VALID,0,VALID,94.1568,VALID,0,VALID,20.5968,VALID,336,VALID,0.523438,
2012-04-30, 00:19:04,VALID,918.109,VALID,0,VALID,94.1721,VALID,0,VALID,20.5984,VALID,336,VALID,0.43125,
2012-04-30, 00:20:04,VALID,918.105,VALID,0,VALID,94.3398,VALID,0,VALID,20.5984,VALID,336,VALID,0.428516,
2012-04-30, 00:21:04,VALID,918.098,VALID,0,VALID,94.3931,VALID,0,VALID,20.5984,VALID,337,VALID,0.540625,
2012-04-30, 00:22:04,VALID,918.097,VALID,0,VALID,94.3626,VALID,0,VALID,20.5773,VALID,337,VALID,0.444531,
2012-04-30, 00:23:04,VALID,918.098,VALID,0,VALID,94.3855,VALID,0,VALID,20.5789,VALID,337,VALID,0.255078,
2012-04-30, 00:24:04,VALID,918.079,VALID,0,VALID,94.4008,VALID,0,VALID,20.5594,VALID,337,VALID,0.226953,
2012-04-30, 00:25:04,VALID,918.093,VALID,0,VALID,94.4541,VALID,0,VALID,20.5594,VALID,337,VALID,0.435937,
2012-04-30, 00:26:04,VALID,918.079,VALID,0,VALID,94.5304,VALID,0,VALID,20.5399,VALID,337,VALID,0.452344,
2012-04-30, 00:27:04,VALID,918.039,VALID,0,VALID,94.5456,VALID,0,VALID,20.5594,VALID,337,VALID,0.530469,
2012-04-30, 00:28:04,VALID,918.007,VALID,0,VALID,94.538,VALID,0,VALID,20.4993,VALID,337,VALID,0.608984,
2012-04-30, 00:29:04,VALID,918.005,VALID,0,VALID,94.6523,VALID,0,VALID,20.5204,VALID,337,VALID,0.685156,
2012-04-30, 00:30:04,VALID,917.979,VALID,0,VALID,94.6523,VALID,0,VALID,20.4813,VALID,337,VALID,0.555078,
2012-04-30, 00:31:04,VALID,917.961,VALID,0,VALID,94.7209,VALID,0,VALID,20.4813,VALID,337,VALID,0.576172,
2012-04-30, 00:32:04,VALID,917.954,VALID,0,VALID,94.8124,VALID,0,VALID,20.4423,VALID,337,VALID,0.436328,
2012-04-30, 00:33:04,VALID,917.922,VALID,0,VALID,94.9496,VALID,0,VALID,20.4634,VALID,337,VALID,0.580469,
2012-04-30, 00:34:04,VALID,917.934,VALID,0,VALID,94.9954,VALID,0,VALID,20.4423,VALID,338,VALID,0.562891,
2012-04-30, 00:35:04,VALID,917.9,VALID,0,VALID,95.0411,VALID,0,VALID,20.4634,VALID,338,VALID,0.528906,
2012-04-30, 00:36:04,VALID,917.904,VALID,0,VALID,95.1174,VALID,0,VALID,20.4618,VALID,338,VALID,0.219922,
2012-04-30, 00:37:04,VALID,917.914,VALID,0,VALID,95.1936,VALID,0,VALID,20.4813,VALID,338,VALID,0,
2012-04-30, 00:38:04,VALID,917.888,VALID,0,VALID,95.1936,VALID,0,VALID,20.5009,VALID,338,VALID,0.0984375,
2012-04-30, 00:39:04,VALID,917.914,VALID,0,VALID,95.1783,VALID,0,VALID,20.5204,VALID,356,VALID,0.487109,
2012-04-30, 00:40:04,VALID,917.888,VALID,0,VALID,95.247,VALID,0,VALID,20.5009,VALID,356,VALID,0.367578,
2012-04-30, 00:41:04,VALID,917.878,VALID,0,VALID,95.1936,VALID,0,VALID,20.5204,VALID,356,VALID,0.983594,
2012-04-30, 00:42:04,VALID,917.862,VALID,0,VALID,95.1707,VALID,0,VALID,20.5009,VALID,10,VALID,1.37422,
2012-04-30, 00:43:04,VALID,917.879,VALID,0,VALID,95.1555,VALID,0,VALID,20.5009,VALID,10,VALID,0.885547,
2012-04-30, 00:44:04,VALID,917.883,VALID,0,VALID,95.1326,VALID,0,VALID,20.4813,VALID,10,VALID,0.844531,
2012-04-30, 00:45:04,VALID,917.859,VALID,0,VALID,95.1783,VALID,0,VALID,20.5219,VALID,10,VALID,0.990625,
2012-04-30, 00:46:04,VALID,917.814,VALID,0,VALID,95.2165,VALID,0,VALID,20.5009,VALID,317,VALID,0.708203,
2012-04-30, 00:47:04,VALID,917.825,VALID,0,VALID,95.2698,VALID,0,VALID,20.5204,VALID,317,VALID,0.640625,
2012-04-30, 00:48:04,VALID,917.815,VALID,0,VALID,95.2927,VALID,0,VALID,20.5414,VALID,317,VALID,0.577734,
2012-04-30, 00:49:04,VALID,917.787,VALID,0,VALID,95.3003,VALID,0,VALID,20.5204,VALID,317,VALID,0.84375,
2012-04-30, 00:50:04,VALID,917.769,VALID,0,VALID,95.3003,VALID,0,VALID,20.5009,VALID,318,VALID,0.654297,
2012-04-30, 00:51:04,VALID,917.79,VALID,0,VALID,95.3232,VALID,0,VALID,20.5024,VALID,348,VALID,0.972656,
2012-04-30, 00:52:04,VALID,917.781,VALID,0,VALID,95.3537,VALID,0,VALID,20.4618,VALID,16,VALID,0.703125,
2012-04-30, 00:53:04,VALID,917.754,VALID,0,VALID,95.3461,VALID,0,VALID,20.4423,VALID,1,VALID,0.992188,
2012-04-30, 00:54:04,VALID,917.757,VALID,0,VALID,95.3918,VALID,0,VALID,20.4634,VALID,1,VALID,0.915234,
2012-04-30, 00:55:04,VALID,917.779,VALID,0,VALID,95.4071,VALID,0,VALID,20.4813,VALID,1,VALID,0.883594,
2012-04-30, 00:56:04,VALID,917.765,VALID,0,VALID,95.4452,VALID,0,VALID,20.4603,VALID,347,VALID,1.02109,
2012-04-30, 00:57:04,VALID,917.734,VALID,0,VALID,95.4604,VALID,0,VALID,20.4603,VALID,346,VALID,1.58477,
2012-04-30, 00:58:04,VALID,917.748,VALID,0,VALID,95.4757,VALID,0,VALID,20.4813,VALID,1,VALID,1.13594,
2012-04-30, 00:59:04,VALID,917.728,VALID,0,VALID,95.468,VALID,0,VALID,20.4813,VALID,35,VALID,1.10156,
2012-04-30, 01:00:04,VALID,917.74,VALID,0,VALID,95.3918,VALID,0,VALID,20.4603,VALID,353,VALID,1.16562,
2012-04-30, 01:01:04,VALID,917.76,VALID,0,VALID,95.3842,VALID,0.107441,VALID,20.4618,VALID,6,VALID,1.48906,
2012-04-30, 01:02:04,VALID,917.754,VALID,0,VALID,95.3766,VALID,0.107441,VALID,20.4408,VALID,7,VALID,1.61563,
2012-04-30, 01:03:04,VALID,917.78,VALID,0,VALID,95.4223,VALID,0.107441,VALID,20.4408,VALID,335,VALID,1.23008,
2012-04-30, 01:04:04,VALID,917.735,VALID,0,VALID,95.3994,VALID,0.107441,VALID,20.4213,VALID,18,VALID,1.73633,
2012-04-30, 01:05:04,VALID,917.741,VALID,0,VALID,95.4147,VALID,0.107441,VALID,20.4408,VALID,19,VALID,1.12109,
2012-04-30, 01:06:04,VALID,917.727,VALID,0,VALID,95.3842,VALID,0.107441,VALID,20.4618,VALID,22,VALID,0.884375,
2012-04-30, 01:07:04,VALID,917.704,VALID,0,VALID,95.4299,VALID,0,VALID,20.4408,VALID,22,VALID,0.696094,
2012-04-30, 01:08:04,VALID,917.712,VALID,0,VALID,95.4375,VALID,0.107441,VALID,20.4603,VALID,22,VALID,0.560547,
2012-04-30, 01:09:04,VALID,917.697,VALID,0,VALID,95.3842,VALID,0.107441,VALID,20.4603,VALID,22,VALID,0.466797,
2012-04-30, 01:10:04,VALID,917.678,VALID,0,VALID,95.3766,VALID,0,VALID,20.4618,VALID,22,VALID,0.287109,
2012-04-30, 01:11:04,VALID,917.677,VALID,0,VALID,95.3994,VALID,0,VALID,20.4618,VALID,22,VALID,0.523047,
2012-04-30, 01:12:04,VALID,917.641,VALID,0,VALID,95.3842,VALID,0,VALID,20.4618,VALID,22,VALID,0.252734,
2012-04-30, 01:13:04,VALID,917.593,VALID,0,VALID,95.3918,VALID,0,VALID,20.5024,VALID,22,VALID,0.137891,
2012-04-30, 01:14:04,VALID,917.598,VALID,0,VALID,95.3918,VALID,0,VALID,20.5009,VALID,22,VALID,0,
2012-04-30, 01:15:04,VALID,917.613,VALID,0,VALID,95.3689,VALID,0,VALID,20.5204,VALID,22,VALID,0,
2012-04-30, 01:16:04,VALID,917.591,VALID,0,VALID,95.3156,VALID,0,VALID,20.5399,VALID,337,VALID,0,
2012-04-30, 01:17:04,VALID,917.572,VALID,0,VALID,95.2927,VALID,0,VALID,20.5609,VALID,318,VALID,0,
2012-04-30, 01:18:04,VALID,917.596,VALID,0,VALID,95.2927,VALID,0,VALID,20.5399,VALID,318,VALID,0,
2012-04-30, 01:19:04,VALID,917.592,VALID,0,VALID,95.247,VALID,0,VALID,20.5609,VALID,318,VALID,0,
2012-04-30, 01:20:04,VALID,917.584,VALID,0,VALID,95.2317,VALID,0,VALID,20.5399,VALID,318,VALID,0,
2012-04-30, 01:21:04,VALID,917.581,VALID,0,VALID,95.186,VALID,0,VALID,20.5399,VALID,318,VALID,0,
2012-04-30, 01:22:04,VALID,917.544,VALID,0,VALID,95.186,VALID,0,VALID,20.5399,VALID,318,VALID,0,
2012-04-30, 01:23:04,VALID,917.497,VALID,0,VALID,95.1936,VALID,0,VALID,20.5204,VALID,318,VALID,0,
2012-04-30, 01:24:04,VALID,917.466,VALID,0,VALID,95.2317,VALID,0,VALID,20.5399,VALID,318,VALID,0,
2012-04-30, 01:25:04,VALID,917.441,VALID,0,VALID,95.1936,VALID,0,VALID,20.5594,VALID,318,VALID,0,
2012-04-30, 01:26:04,VALID,917.397,VALID,0,VALID,95.1555,VALID,0,VALID,20.5789,VALID,318,VALID,0,
2012-04-30, 01:27:04,VALID,917.406,VALID,0,VALID,95.1326,VALID,0.107441,VALID,20.5578,VALID,318,VALID,0,
2012-04-30, 01:28:04,VALID,917.394,VALID,0,VALID,95.0869,VALID,0,VALID,20.5789,VALID,318,VALID,0,
2012-04-30, 01:29:04,VALID,917.409,VALID,0,VALID,94.9954,VALID,0,VALID,20.5594,VALID,318,VALID,0,
2012-04-30, 01:30:04,VALID,917.419,VALID,0,VALID,94.9801,VALID,0.107441,VALID,20.5188,VALID,318,VALID,0,
2012-04-30, 01:31:04,VALID,917.476,VALID,0,VALID,95.1174,VALID,0,VALID,20.4993,VALID,318,VALID,0,
2012-04-30, 01:32:04,VALID,917.468,VALID,0,VALID,95.1707,VALID,0.107441,VALID,20.4993,VALID,318,VALID,0,
2012-04-30, 01:33:04,VALID,917.448,VALID,0,VALID,95.2241,VALID,0,VALID,20.4993,VALID,318,VALID,0,
2012-04-30, 01:34:04,VALID,917.434,VALID,0,VALID,95.2165,VALID,0,VALID,20.4798,VALID,318,VALID,0,
2012-04-30, 01:35:04,VALID,917.433,VALID,0,VALID,95.247,VALID,0.107441,VALID,20.4798,VALID,318,VALID,0,
2012-04-30, 01:36:04,VALID,917.429,VALID,0,VALID,95.2012,VALID,0.107441,VALID,20.4603,VALID,318,VALID,0,
2012-04-30, 01:37:04,VALID,917.405,VALID,0,VALID,95.2775,VALID,0.107441,VALID,20.4798,VALID,318,VALID,0,
2012-04-30, 01:38:04,VALID,917.431,VALID,0,VALID,95.3537,VALID,0.107441,VALID,20.4603,VALID,318,VALID,0,
2012-04-30, 01:39:04,VALID,917.437,VALID,0,VALID,95.2927,VALID,0,VALID,20.4993,VALID,318,VALID,0,
2012-04-30, 01:40:04,VALID,917.39,VALID,0,VALID,95.3613,VALID,0,VALID,20.5219,VALID,318,VALID,0,
2012-04-30, 01:41:04,VALID,917.414,VALID,0,VALID,95.2317,VALID,0,VALID,20.5009,VALID,350,VALID,1.11289,
2012-04-30, 01:42:04,VALID,917.387,VALID,0,VALID,95.2241,VALID,0,VALID,20.5024,VALID,359,VALID,1.0457,
2012-04-30, 01:43:04,VALID,917.366,VALID,0,VALID,95.2393,VALID,0,VALID,20.4813,VALID,343,VALID,0.599219,
2012-04-30, 01:44:04,VALID,917.331,VALID,0,VALID,95.2698,VALID,0,VALID,20.4618,VALID,343,VALID,0.465234,
2012-04-30, 01:45:04,VALID,917.317,VALID,0,VALID,95.3156,VALID,0,VALID,20.4618,VALID,343,VALID,0.358594,
2012-04-30, 01:46:04,VALID,917.288,VALID,0,VALID,95.3689,VALID,0,VALID,20.4423,VALID,343,VALID,0.615625,
2012-04-30, 01:47:04,VALID,917.256,VALID,0,VALID,95.4147,VALID,0,VALID,20.4829,VALID,343,VALID,0.390625,
2012-04-30, 01:48:04,VALID,917.279,VALID,0,VALID,95.4223,VALID,0,VALID,20.4618,VALID,343,VALID,0.884375,
2012-04-30, 01:49:04,VALID,917.264,VALID,0,VALID,95.4299,VALID,0,VALID,20.5024,VALID,343,VALID,0.563672,
2012-04-30, 01:50:04,VALID,917.264,VALID,0,VALID,95.3918,VALID,0,VALID,20.4813,VALID,343,VALID,0.524219,
2012-04-30, 01:51:04,VALID,917.245,VALID,0,VALID,95.4223,VALID,0,VALID,20.5009,VALID,343,VALID,0.672656,
2012-04-30, 01:52:04,VALID,917.209,VALID,0,VALID,95.4452,VALID,0,VALID,20.4813,VALID,344,VALID,0.475391,
2012-04-30, 01:53:04,VALID,917.207,VALID,0,VALID,95.4528,VALID,0,VALID,20.4813,VALID,344,VALID,0.471875,
2012-04-30, 01:54:04,VALID,917.2,VALID,0,VALID,95.4299,VALID,0,VALID,20.4798,VALID,351,VALID,0.776172,
2012-04-30, 01:55:04,VALID,917.225,VALID,0,VALID,95.4452,VALID,0,VALID,20.5009,VALID,351,VALID,0.645703,
2012-04-30, 01:56:04,VALID,917.2,VALID,0,VALID,95.3842,VALID,0,VALID,20.4813,VALID,351,VALID,0.629687,
2012-04-30, 01:57:04,VALID,917.175,VALID,0,VALID,95.3766,VALID,0,VALID,20.5009,VALID,351,VALID,0.748438,
2012-04-30, 01:58:04,VALID,917.19,VALID,0,VALID,95.3613,VALID,0,VALID,20.5009,VALID,351,VALID,0.609375,
2012-04-30, 01:59:04,VALID,917.148,VALID,0,VALID,95.3079,VALID,0,VALID,20.5414,VALID,351,VALID,0.628125,
2012-04-30, 02:00:04,VALID,917.149,VALID,0,VALID,95.2546,VALID,0,VALID,20.5219,VALID,351,VALID,0.456641,
2012-04-30, 02:01:04,VALID,917.123,VALID,0,VALID,95.186,VALID,0,VALID,20.5009,VALID,351,VALID,0.719922,
2012-04-30, 02:02:04,VALID,917.116,VALID,0,VALID,95.0945,VALID,0,VALID,20.5009,VALID,351,VALID,0.857031,
2012-04-30, 02:03:04,VALID,917.121,VALID,0,VALID,95.0335,VALID,0,VALID,20.4813,VALID,351,VALID,0.808984,
2012-04-30, 02:04:04,VALID,917.113,VALID,0,VALID,95.0259,VALID,0,VALID,20.4423,VALID,352,VALID,0.914453,
2012-04-30, 02:05:04,VALID,917.102,VALID,0,VALID,95.0411,VALID,0,VALID,20.4228,VALID,4,VALID,0.896094,
2012-04-30, 02:06:04,VALID,917.081,VALID,0,VALID,95.125,VALID,0,VALID,20.4228,VALID,4,VALID,0.777344,
2012-04-30, 02:07:04,VALID,917.062,VALID,0,VALID,95.186,VALID,0,VALID,20.4033,VALID,4,VALID,0.75,
2012-04-30, 02:08:04,VALID,917.005,VALID,0,VALID,95.1783,VALID,0,VALID,20.4049,VALID,4,VALID,0.907422,
2012-04-30, 02:09:04,VALID,917.005,VALID,0,VALID,95.1783,VALID,0,VALID,20.3643,VALID,4,VALID,0.892969,
2012-04-30, 02:10:04,VALID,916.947,VALID,0,VALID,95.1936,VALID,0,VALID,20.3448,VALID,4,VALID,0.761719,
2012-04-30, 02:11:04,VALID,916.936,VALID,0,VALID,95.2698,VALID,0,VALID,20.3464,VALID,4,VALID,0.857813,
2012-04-30, 02:12:04,VALID,916.918,VALID,0,VALID,95.3689,VALID,0,VALID,20.3058,VALID,4,VALID,0.925781,
2012-04-30, 02:13:04,VALID,916.919,VALID,0,VALID,95.4223,VALID,0,VALID,20.3058,VALID,4,VALID,1.12578,
2012-04-30, 02:14:04,VALID,916.893,VALID,0,VALID,95.4833,VALID,0,VALID,20.3074,VALID,4,VALID,1.02227,
2012-04-30, 02:15:04,VALID,916.906,VALID,0,VALID,95.4833,VALID,0,VALID,20.2863,VALID,4,VALID,1.04414,
2012-04-30, 02:16:04,VALID,916.922,VALID,0,VALID,95.4909,VALID,0,VALID,20.2863,VALID,4,VALID,1.05859,
2012-04-30, 02:17:04,VALID,916.89,VALID,0,VALID,95.5595,VALID,0,VALID,20.2668,VALID,4,VALID,1.02539,
2012-04-30, 02:18:04,VALID,916.894,VALID,0,VALID,95.6205,VALID,0,VALID,20.2879,VALID,4,VALID,0.882813,
2012-04-30, 02:19:04,VALID,916.903,VALID,0,VALID,95.6586,VALID,0,VALID,20.2684,VALID,4,VALID,0.710156,
2012-04-30, 02:20:04,VALID,916.879,VALID,0,VALID,95.712,VALID,0,VALID,20.2684,VALID,4,VALID,0.626953,
2012-04-30, 02:21:04,VALID,916.867,VALID,0,VALID,95.773,VALID,0,VALID,20.2879,VALID,4,VALID,0.713672,
2012-04-30, 02:22:04,VALID,916.858,VALID,0,VALID,95.8416,VALID,0,VALID,20.2473,VALID,4,VALID,0.269141,
2012-04-30, 02:23:04,VALID,916.835,VALID,0,VALID,95.8568,VALID,0,VALID,20.2668,VALID,4,VALID,0.122656,
2012-04-30, 02:24:04,VALID,916.789,VALID,0,VALID,95.8645,VALID,0,VALID,20.2879,VALID,4,VALID,0.601953,
2012-04-30, 02:25:04,VALID,916.805,VALID,0,VALID,95.8416,VALID,0,VALID,20.2668,VALID,4,VALID,0.560938,
2012-04-30, 02:26:04,VALID,916.792,VALID,0,VALID,95.8568,VALID,0,VALID,20.2473,VALID,4,VALID,0.873438,
2012-04-30, 02:27:04,VALID,916.78,VALID,0,VALID,95.8873,VALID,0,VALID,20.2668,VALID,4,VALID,0.878906,
2012-04-30, 02:28:04,VALID,916.744,VALID,0,VALID,95.8568,VALID,0,VALID,20.2473,VALID,4,VALID,0.718359,
2012-04-30, 02:29:04,VALID,916.694,VALID,0,VALID,95.8873,VALID,0,VALID,20.2489,VALID,4,VALID,0.615234,
2012-04-30, 02:30:04,VALID,916.657,VALID,0,VALID,95.9254,VALID,0,VALID,20.2489,VALID,4,VALID,0.232812,
2012-04-30, 02:31:04,VALID,916.651,VALID,0,VALID,95.9788,VALID,0,VALID,20.2489,VALID,4,VALID,0.199609,
2012-04-30, 02:32:04,VALID,916.635,VALID,0,VALID,96.0169,VALID,0,VALID,20.2473,VALID,4,VALID,0,
2012-04-30, 02:33:04,VALID,916.619,VALID,0,VALID,96.0169,VALID,0,VALID,20.2473,VALID,4,VALID,0,
2012-04-30, 02:34:04,VALID,916.593,VALID,0,VALID,96.055,VALID,0,VALID,20.3074,VALID,4,VALID,0.00234375,
2012-04-30, 02:35:04,VALID,916.622,VALID,0,VALID,96.0855,VALID,0,VALID,20.2863,VALID,4,VALID,0.301562,
2012-04-30, 02:36:04,VALID,916.639,VALID,0,VALID,96.1008,VALID,0,VALID,20.3253,VALID,4,VALID,0.0714844,
2012-04-30, 02:37:04,VALID,916.646,VALID,0,VALID,96.0932,VALID,0,VALID,20.3448,VALID,4,VALID,0,
2012-04-30, 02:38:04,VALID,916.628,VALID,0,VALID,96.0474,VALID,0,VALID,20.3838,VALID,4,VALID,0.0941406,
2012-04-30, 02:39:04,VALID,916.642,VALID,0,VALID,95.9102,VALID,0,VALID,20.3433,VALID,4,VALID,0.167969,
2012-04-30, 02:40:04,VALID,916.617,VALID,0,VALID,95.8568,VALID,0,VALID,20.3643,VALID,4,VALID,0.438281,
2012-04-30, 02:41:04,VALID,916.623,VALID,0,VALID,95.8416,VALID,0,VALID,20.3659,VALID,1,VALID,0.212109,
2012-04-30, 02:42:04,VALID,916.603,VALID,0,VALID,95.8645,VALID,0,VALID,20.3448,VALID,1,VALID,0.00117188,
2012-04-30, 02:43:04,VALID,916.573,VALID,0,VALID,95.8492,VALID,0,VALID,20.3643,VALID,1,VALID,0.426953,
2012-04-30, 02:44:04,VALID,916.572,VALID,0,VALID,95.7501,VALID,0,VALID,20.3854,VALID,360,VALID,0.633984,
2012-04-30, 02:45:04,VALID,916.543,VALID,0,VALID,95.6967,VALID,0,VALID,20.3854,VALID,360,VALID,0.601953,
2012-04-30, 02:46:04,VALID,916.531,VALID,0,VALID,95.6662,VALID,0,VALID,20.3643,VALID,360,VALID,0.390625,
2012-04-30, 02:47:04,VALID,916.511,VALID,0,VALID,95.6281,VALID,0,VALID,20.3838,VALID,360,VALID,0.439453,
2012-04-30, 02:48:04,VALID,916.482,VALID,0,VALID,95.5976,VALID,0,VALID,20.3838,VALID,360,VALID,0.246875,
2012-04-30, 02:49:04,VALID,916.48,VALID,0,VALID,95.59,VALID,0,VALID,20.3838,VALID,360,VALID,0.481641,
2012-04-30, 02:50:04,VALID,916.472,VALID,0,VALID,95.6053,VALID,0,VALID,20.3838,VALID,360,VALID,0.562891,
2012-04-30, 02:51:04,VALID,916.469,VALID,0,VALID,95.6434,VALID,0,VALID,20.4244,VALID,360,VALID,0.481641,
2012-04-30, 02:52:04,VALID,916.457,VALID,0,VALID,95.6205,VALID,0,VALID,20.4228,VALID,360,VALID,0.234766,
2012-04-30, 02:53:04,VALID,916.448,VALID,0,VALID,95.6281,VALID,0,VALID,20.4228,VALID,360,VALID,0.390625,
2012-04-30, 02:54:04,VALID,916.418,VALID,0,VALID,95.651,VALID,0,VALID,20.4618,VALID,360,VALID,0.170703,
2012-04-30, 02:55:04,VALID,916.414,VALID,0,VALID,95.651,VALID,0,VALID,20.4813,VALID,360,VALID,0,
2012-04-30, 02:56:04,VALID,916.406,VALID,0,VALID,95.5671,VALID,0,VALID,20.4618,VALID,360,VALID,0,
2012-04-30, 02:57:04,VALID,916.397,VALID,0,VALID,95.5519,VALID,0,VALID,20.5009,VALID,360,VALID,0,
2012-04-30, 02:58:04,VALID,916.331,VALID,0,VALID,95.4985,VALID,0,VALID,20.4813,VALID,360,VALID,0.00117188,
2012-04-30, 02:59:04,VALID,916.32,VALID,0,VALID,95.4528,VALID,0,VALID,20.4813,VALID,360,VALID,0.597656,
2012-04-30, 03:00:04,VALID,916.3,VALID,0,VALID,95.4299,VALID,0,VALID,20.5204,VALID,360,VALID,0.339844,
2012-04-30, 03:01:04,VALID,916.335,VALID,0,VALID,95.3003,VALID,0,VALID,20.5219,VALID,360,VALID,0.665625,
2012-04-30, 03:02:04,VALID,916.34,VALID,0,VALID,95.3232,VALID,0,VALID,20.4813,VALID,360,VALID,0.262109,
2012-04-30, 03:03:04,VALID,916.332,VALID,0,VALID,95.3994,VALID,0,VALID,20.5009,VALID,360,VALID,0,
2012-04-30, 03:04:04,VALID,916.287,VALID,0,VALID,95.4071,VALID,0,VALID,20.5009,VALID,360,VALID,0,
2012-04-30, 03:05:04,VALID,916.27,VALID,0,VALID,95.3689,VALID,0,VALID,20.5204,VALID,360,VALID,0.264844,
2012-04-30, 03:06:04,VALID,916.246,VALID,0,VALID,95.3537,VALID,0,VALID,20.5204,VALID,360,VALID,0,
2012-04-30, 03:07:04,VALID,916.263,VALID,0,VALID,95.3156,VALID,0,VALID,20.5009,VALID,360,VALID,0,
2012-04-30, 03:08:04,VALID,916.225,VALID,0,VALID,95.3079,VALID,0,VALID,20.5009,VALID,360,VALID,0.259766,
2012-04-30, 03:09:04,VALID,916.213,VALID,0,VALID,95.2698,VALID,0,VALID,20.4618,VALID,360,VALID,0.402734,
2012-04-30, 03:10:04,VALID,916.19,VALID,0,VALID,95.3003,VALID,0,VALID,20.4423,VALID,360,VALID,0.358594,
2012-04-30, 03:11:04,VALID,916.187,VALID,0,VALID,95.3918,VALID,0,VALID,20.4228,VALID,360,VALID,0.236719,
2012-04-30, 03:12:04,VALID,916.188,VALID,0,VALID,95.4452,VALID,0,VALID,20.4033,VALID,314,VALID,0.563281,
2012-04-30, 03:13:04,VALID,916.195,VALID,0,VALID,95.4985,VALID,0,VALID,20.3838,VALID,266,VALID,0.114063,
2012-04-30, 03:14:04,VALID,916.205,VALID,0,VALID,95.59,VALID,0,VALID,20.3838,VALID,266,VALID,0.00117188,
2012-04-30, 03:15:04,VALID,916.231,VALID,0,VALID,95.5976,VALID,0,VALID,20.4049,VALID,266,VALID,0.254687,
2012-04-30, 03:16:04,VALID,916.224,VALID,0,VALID,95.5519,VALID,0,VALID,20.3448,VALID,265,VALID,0.144141,
2012-04-30, 03:17:04,VALID,916.229,VALID,0,VALID,95.59,VALID,0,VALID,20.3253,VALID,266,VALID,0.733984,
2012-04-30, 03:18:04,VALID,916.235,VALID,0,VALID,95.6739,VALID,0,VALID,20.3253,VALID,265,VALID,0.123047,
2012-04-30, 03:19:04,VALID,916.246,VALID,0,VALID,95.6815,VALID,0,VALID,20.3253,VALID,265,VALID,0.602734,
2012-04-30, 03:20:04,VALID,916.242,VALID,0,VALID,95.59,VALID,0,VALID,20.3058,VALID,266,VALID,0.435937,
2012-04-30, 03:21:04,VALID,916.227,VALID,0,VALID,95.6205,VALID,0,VALID,20.2848,VALID,266,VALID,0.211328,
2012-04-30, 03:22:04,VALID,916.226,VALID,0,VALID,95.5519,VALID,0,VALID,20.2863,VALID,265,VALID,0.425391,
2012-04-30, 03:23:04,VALID,916.218,VALID,0,VALID,95.4909,VALID,0,VALID,20.2863,VALID,266,VALID,0.580859,
2012-04-30, 03:24:04,VALID,916.221,VALID,0,VALID,95.4299,VALID,0,VALID,20.2668,VALID,265,VALID,0.110156,
2012-04-30, 03:25:04,VALID,916.216,VALID,0,VALID,95.4071,VALID,0,VALID,20.2668,VALID,265,VALID,0.509766,
2012-04-30, 03:26:04,VALID,916.213,VALID,0,VALID,95.2088,VALID,0,VALID,20.2473,VALID,265,VALID,0.224219,
2012-04-30, 03:27:04,VALID,916.207,VALID,0,VALID,95.0945,VALID,0,VALID,20.2668,VALID,265,VALID,0.160547,
2012-04-30, 03:28:05,VALID,916.213,VALID,0,VALID,94.9573,VALID,0,VALID,20.2668,VALID,265,VALID,0.252344,
2012-04-30, 03:29:05,VALID,916.254,VALID,0,VALID,94.9496,VALID,0,VALID,20.2863,VALID,266,VALID,0.388672,
2012-04-30, 03:30:05,VALID,916.245,VALID,0,VALID,94.942,VALID,0,VALID,20.3058,VALID,265,VALID,0.355469,
2012-04-30, 03:31:05,VALID,916.261,VALID,0,VALID,94.9725,VALID,0,VALID,20.3253,VALID,266,VALID,0,
2012-04-30, 03:32:05,VALID,916.275,VALID,0,VALID,94.9801,VALID,0,VALID,20.3253,VALID,265,VALID,0.370703,
2012-04-30, 03:33:05,VALID,916.282,VALID,0,VALID,95.0106,VALID,0,VALID,20.3448,VALID,265,VALID,0.232422,
2012-04-30, 03:34:05,VALID,916.26,VALID,0,VALID,94.9496,VALID,0,VALID,20.3253,VALID,266,VALID,0.476953,
2012-04-30, 03:35:05,VALID,916.323,VALID,0,VALID,94.881,VALID,0,VALID,20.3058,VALID,266,VALID,0.541016,
2012-04-30, 03:36:05,VALID,916.301,VALID,0,VALID,94.8963,VALID,0,VALID,20.2863,VALID,266,VALID,0.0121094,
2012-04-30, 03:37:05,VALID,916.337,VALID,0,VALID,94.9344,VALID,0,VALID,20.3058,VALID,266,VALID,0.0410156,
2012-04-30, 03:38:05,VALID,916.324,VALID,0,VALID,94.9268,VALID,0,VALID,20.3253,VALID,266,VALID,0.0632813,
2012-04-30, 03:39:05,VALID,916.324,VALID,0,VALID,94.8658,VALID,0,VALID,20.3448,VALID,266,VALID,0.222266,
2012-04-30, 03:40:05,VALID,916.336,VALID,0,VALID,94.8582,VALID,0.107441,VALID,20.3238,VALID,266,VALID,0.0683594,
2012-04-30, 03:41:05,VALID,916.313,VALID,0,VALID,94.8887,VALID,0,VALID,20.3628,VALID,266,VALID,0,
2012-04-30, 03:42:05,VALID,916.327,VALID,0,VALID,94.8734,VALID,0,VALID,20.3628,VALID,266,VALID,0.724609,
2012-04-30, 03:43:05,VALID,916.358,VALID,0,VALID,94.9344,VALID,0,VALID,20.3628,VALID,31,VALID,0.402344,
2012-04-30, 03:44:05,VALID,916.338,VALID,0,VALID,94.9039,VALID,0,VALID,20.3433,VALID,26,VALID,0,
2012-04-30, 03:45:05,VALID,916.304,VALID,0,VALID,94.82,VALID,0.107441,VALID,20.3433,VALID,26,VALID,0.360547,
2012-04-30, 03:46:05,VALID,916.302,VALID,0,VALID,94.8124,VALID,0.107441,VALID,20.3433,VALID,26,VALID,0.757031,
2012-04-30, 03:47:05,VALID,916.291,VALID,0,VALID,94.7819,VALID,0.107441,VALID,20.3433,VALID,26,VALID,0.360156,